Location: Gleizolles
(44.4833°N, 6.7667°E)
Time: 01:37:51
(UTC+00:00)

S-56A Canister/Altair - Pass Details

Date: 27 June 2024
Orbit: 638 x 2488 km, 38.9° (Epoch: 24 July)

Event Time Altitude Azimuth Distance (km) Brightness Sun altitude
Rises 18:33:39 0° 226° (SW) 3,534 11.2 6.6°
Reaches altitude 10° 18:36:01 10° 218° (SW) 2,780 10.6 6.2°
Maximum altitude 18:42:16 40° 151° (SSE) 1,840 9.2 5.2°
Drops below altitude 10° 18:51:24 10° 87° (E) 4,056 10.7 3.8°
Sets 18:55:35 0° 81° (E) 5,350 11.4 3.1°
